Regional Weather Roundup
Issued by NWS

Home | Current Version | Previous Version | Graphics & Text | Print | Product List | Glossary On
Versions: 1 2 3 4 5 6 7 8 9 10 11 12 13 14 15 16 17 18 19 20 21 22 23 24 25 26 27 28 29 30 31 32 33 34 35 36 37 38 39 40 41 42 43 44 45 46 47 48
000
ASUS45 KCYS 021310
RWRWY

WYOMING REGIONAL WEATHER ROUNDUP
NATIONAL WEATHER SERVICE CHEYENNE WY
600 AM MST MON MAR 02 2015

NOTE:  "FAIR" INDICATES FEW OR NO CLOUDS BELOW 12,000 FEET
WITH NO SIGNIFICANT WEATHER AND/OR OBSTRUCTIONS TO VISIBILITY.

WYZ001-021400-
YELLOWSTONE NATIONAL PARK

CITY           SKY/WX    TMP DP  RH WIND       PRES   REMARKS
LK YELLOWSTONE   N/A    -12 -17  78 CALM      29.87F
W YELLOWSTONE  NOT AVBL

$$
WYZ002>013-054>058-071-098>099-021400-
NORTHERN WYOMING

CITY           SKY/WX    TMP DP  RH WIND       PRES   REMARKS
JACKSON        FAIR       3   0  85 N8        29.90S WCI -10
CODY           FAIR      10  10 100 SE3       29.84F
GREYBULL       FAIR      12   7  80 CALM      29.93F
WORLAND        FAIR      14  10  84 CALM      29.91F
SHERIDAN       FAIR       4   0  83 S6        29.88R WCI  -7
BUFFALO        FAIR      20  -5  33 N3        29.83F
GILLETTE       FAIR      16  10  77 S16       29.89S WCI   1
HULETT         FAIR      28  18  64 S17G23    29.89F WCI  16
NEWCASTLE      FAIR      25  14  63 SE13G20   29.97F WCI  13

$$
WYZ014>020-022>026-101>103-021400-
CENTRAL WYOMING

CITY           SKY/WX    TMP DP  RH WIND       PRES   REMARKS
BIG PINEY      CLOUDY    12   8  84 N3        29.88F
PINEDALE       CLOUDY     7   3  85 NW7       29.87F WCI  -5
DUBOIS         FAIR      14   9  79 NW13      29.81F WCI   0
LANDER         FAIR      10   5  80 NW6       29.88F WCI   0
RIVERTON       FAIR       7   3  84 CALM      29.90F
CASPER         FAIR      22  16  78 W6        29.89F WCI  14
DOUGLAS        FAIR      24  17  74 SE16G22   29.92F WCI  11

$$
WYZ021-027>030-104>119-021400-
SOUTHERN WYOMING

CITY           SKY/WX    TMP DP  RH WIND       PRES   REMARKS
EVANSTON       LGT SNOW  24  21  88 NE8       29.83F FOG     WCI  15
KEMMERER       CLOUDY    21  19  93 N7        29.85S WCI  13
FORT BRIDGER   CLOUDY    23  22  99 CALM      29.88F
ROCK SPRINGS   CLOUDY    23  18  81 CALM      29.86F
DIXON          LGT SNOW  31  30  96 CALM      29.91F
RAWLINS        LGT SNOW  22  18  85 CALM      29.88F FOG
SARATOGA       LGT SNOW  30  30 100 SE8       29.89F WCI  23
LARAMIE        FLURRIES  24  21  88 S9        29.89S WCI  14
CHEYENNE       CLOUDY    20  16  84 S9        29.96F FOG     WCI   9
TORRINGTON     MOCLDY    29  19  66 SE9       30.01F WCI  20
PINE BLUFFS    FAIR      23  19  86 S13G18    30.02F WCI  11

$$



USA.gov is the U.S. government's official web portal to all federal, state and local government web resources and services.